This demonstration page uses our WeatherBlox Daily Observations layout. Learn more.

Left ArrowRight Arrow

34.02893, -84.19858

Hourly Observations for February 2, 2020

Temp ( °F °C ) Dew Point ( °F °C ) Humidity (%) Winds ( mph kmh ) Pressure ( in mb ) Visibility ( mi km ) Precip ( " mm )
12:53 am 00:53 Mostly Cloudy 42 5.6 34 1.1 73 73 W 12 19 30.05 1018 10 16 0.00 0.00
1:53 am 01:53 Clear 40 4.4 34 1.1 79 79 W 9 15 30.05 1018 10 16 0.00 0.00
2:53 am 02:53 Clear 39 3.9 34 1.1 82 82 W 8 13 30.06 1018 10 16 0.00 0.00
3:53 am 03:53 Clear 38 3.3 33 0.6 83 83 W 5 7 30.06 1018 10 16 0.00 0.00
4:53 am 04:53 Clear 37 2.8 33 0.6 86 86 W 7 11 30.05 1018 10 16 0.00 0.00
5:53 am 05:53 Clear 37 2.8 33 0.6 86 86 W 8 13 30.06 1018 10 16 0.00 0.00
6:53 am 06:53 Clear 36 2.2 33 0.6 89 89 W 8 13 30.08 1019 10 16 0.00 0.00
7:53 am 07:53 Sunny 35 1.7 32 0 89 89 WSW 6 9 30.09 1019 10 16 0.00 0.00
8:53 am 08:53 Sunny 39 3.9 34 1.1 82 82 W 8 13 30.09 1019 10 16 0.00 0.00
9:53 am 09:53 Sunny 43 6.1 35 1.7 74 74 W 7 11 30.10 1019 10 16 0.00 0.00
10:53 am 10:53 Sunny 48 8.9 35 1.7 61 61 W 12 19 30.09 1019 10 16 0.00 0.00
11:53 am 11:53 Sunny 53 11.7 34 1.1 48 48 W 14 22 30.07 1018 10 16 0.00 0.00
12:53 pm 12:53 Sunny 57 13.9 29 -1.7 34 34 W 14 22 30.03 1017 10 16 0.00 0.00
1:53 pm 13:53 Sunny 60 15.6 30 -1.1 32 32 WNW 12 19 29.98 1015 10 16 0.00 0.00
2:53 pm 14:53 Sunny 62 16.7 30 -1.1 30 30 WSW 14 22 29.96 1015 10 16 0.00 0.00
3:53 pm 15:53 Sunny 63 17.2 30 -1.1 29 29 W 13 20 29.96 1015 10 16 0.00 0.00
4:53 pm 16:53 Sunny 62 16.7 31 -0.6 31 31 W 10 17 29.96 1014 10 16 0.00 0.00
5:53 pm 17:53 Sunny 60 15.6 32 0 35 35 W 8 13 29.97 1015 10 16 0.00 0.00
6:53 pm 18:53 Clear 57 13.9 32 0 39 39 W 8 13 30.00 1016 10 16 0.00 0.00
7:53 pm 19:53 Clear 54 12.2 32 0 43 43 WSW 5 7 30.02 1017 10 16 0.00 0.00
8:53 pm 20:53 Clear 50 10 33 0.6 52 52 SW 5 7 30.02 1017 10 16 0.00 0.00
9:53 pm 21:53 Clear 49 9.4 32 0 52 52 SW 3 6 30.03 1017 10 16 0.00 0.00
10:53 pm 22:53 Clear 46 7.8 33 0.6 61 61 SW 6 9 30.04 1017 10 16 0.00 0.00
11:53 pm 23:53 Clear 46 7.8 33 0.6 61 61 SW 5 7 30.04 1017 10 16 0.00 0.00

Powered by AerisWeather